WMT1XN LATI-LIRP

Flight info

Callsign WMT1XN
Flight time 1h 18m
Altitude 36000
Route DIRES DCT EBELA DCT KOFER DCT KATTI DCT SOVAN/N0366F180 L995 IBRID
Aircraft A321/M-SDE3FGHIRWY/LB1

Departure

Time 2026-05-04 12:50
Airport Tirana International Airport Mother Teresa (LATI)

Arrival

Time 2026-05-04 14:08
Airport Pisa International Airport (LIRP)
Time Latitude Longitude Altitude Speed Heading
2026-05-04 12:20 41.41988 19.71514 119 ft 0 kts 264°
2026-05-04 12:41 41.41990 19.71533 119 ft 3 kts 263°
2026-05-04 12:41 41.41997 19.71563 120 ft 4 kts 217°
2026-05-04 12:41 41.42020 19.71571 120 ft 4 kts 175°
2026-05-04 12:42 41.42030 19.71570 120 ft 0 kts 174°
2026-05-04 12:44 41.42029 19.71570 120 ft 0 kts 174°
2026-05-04 12:45 41.42016 19.71572 119 ft 4 kts 174°
2026-05-04 12:45 41.41976 19.71577 121 ft 7 kts 174°
2026-05-04 12:45 41.41923 19.71584 121 ft 9 kts 174°
2026-05-04 12:45 41.41858 19.71593 124 ft 10 kts 174°
2026-05-04 12:46 41.41780 19.71603 124 ft 12 kts 174°
2026-05-04 12:46 41.41690 19.71615 125 ft 14 kts 174°
2026-05-04 12:46 41.41591 19.71629 123 ft 15 kts 174°
2026-05-04 12:46 41.41481 19.71643 126 ft 16 kts 174°
2026-05-04 12:47 41.41363 19.71659 126 ft 18 kts 174°
2026-05-04 12:47 41.41237 19.71675 127 ft 19 kts 175°
2026-05-04 12:47 41.41103 19.71694 126 ft 20 kts 173°
2026-05-04 12:47 41.40966 19.71715 127 ft 20 kts 174°
2026-05-04 12:48 41.40828 19.71744 131 ft 20 kts 170°
2026-05-04 12:48 41.40694 19.71768 132 ft 16 kts 174°
2026-05-04 12:48 41.40635 19.71846 132 ft 14 kts 84°
2026-05-04 12:48 41.40659 19.71980 132 ft 15 kts 76°
2026-05-04 12:49 41.40683 19.72114 134 ft 10 kts 77°
2026-05-04 12:49 41.40731 19.72157 134 ft 10 kts 358°
2026-05-04 12:49 41.40903 19.72132 133 ft 57 kts 353°
2026-05-04 12:49 41.41543 19.72047 123 ft 126 kts 354°
2026-05-04 12:50 41.42594 19.71899 232 ft 167 kts 350°
2026-05-04 12:50 41.43710 19.71758 1063 ft 158 kts 351°
2026-05-04 12:50 41.44807 19.71621 1795 ft 159 kts 352°
2026-05-04 12:50 41.45937 19.71469 2296 ft 170 kts 354°
2026-05-04 12:51 41.47137 19.71061 2559 ft 192 kts 326°
2026-05-04 12:51 41.47943 19.69598 2841 ft 212 kts 286°
2026-05-04 12:51 41.47832 19.67599 3090 ft 231 kts 246°
2026-05-04 12:51 41.46673 19.65988 3280 ft 253 kts 206°
2026-05-04 12:52 41.44971 19.65216 3774 ft 267 kts 190°
2026-05-04 12:52 41.43111 19.64804 4440 ft 274 kts 186°
2026-05-04 12:52 41.41207 19.64484 5199 ft 278 kts 185°
2026-05-04 12:52 41.39318 19.63828 5914 ft 285 kts 206°
2026-05-04 12:53 41.37753 19.62208 6653 ft 289 kts 232°
2026-05-04 12:53 41.36836 19.59846 7361 ft 290 kts 258°
2026-05-04 12:53 41.36758 19.57200 8088 ft 287 kts 284°
2026-05-04 12:53 41.37511 19.54787 8798 ft 283 kts 309°
2026-05-04 12:54 41.38767 19.52774 9548 ft 283 kts 314°
2026-05-04 12:54 41.40053 19.50768 10248 ft 288 kts 314°
2026-05-04 12:54 41.41403 19.48660 10437 ft 310 kts 313°
2026-05-04 12:54 41.42851 19.46395 10593 ft 332 kts 313°
2026-05-04 12:55 41.44365 19.44011 11075 ft 340 kts 313°
2026-05-04 12:55 41.45896 19.41581 11703 ft 343 kts 313°
2026-05-04 12:55 41.47432 19.39135 12368 ft 346 kts 313°
2026-05-04 12:55 41.48978 19.36666 13033 ft 348 kts 313°
2026-05-04 12:56 41.50533 19.34185 13703 ft 350 kts 313°
2026-05-04 12:56 41.52102 19.31682 14337 ft 352 kts 313°
2026-05-04 12:56 41.53680 19.29168 14924 ft 354 kts 313°
2026-05-04 12:56 41.55248 19.26670 15514 ft 356 kts 313°
2026-05-04 12:57 41.56845 19.24125 16126 ft 359 kts 313°
2026-05-04 12:57 41.58454 19.21561 16715 ft 361 kts 313°
2026-05-04 12:57 41.60075 19.18977 17312 ft 363 kts 313°
2026-05-04 12:57 41.61705 19.16377 17885 ft 366 kts 313°
2026-05-04 12:58 41.63344 19.13758 18445 ft 369 kts 313°
2026-05-04 12:58 41.64996 19.11116 18940 ft 371 kts 313°
2026-05-04 12:58 41.66667 19.08438 19412 ft 375 kts 313°
2026-05-04 12:58 41.68339 19.05751 19923 ft 377 kts 313°
2026-05-04 12:59 41.70025 19.03042 20433 ft 380 kts 313°
2026-05-04 12:59 41.71713 19.00326 20957 ft 382 kts 313°
2026-05-04 12:59 41.73416 18.97584 21453 ft 384 kts 313°
2026-05-04 12:59 41.75131 18.94823 21966 ft 386 kts 313°
2026-05-04 13:00 41.76854 18.92047 22451 ft 388 kts 313°
2026-05-04 13:00 41.78585 18.89257 22929 ft 390 kts 313°
2026-05-04 13:00 41.80323 18.86449 23380 ft 393 kts 313°
2026-05-04 13:00 41.82070 18.83626 23817 ft 395 kts 313°
2026-05-04 13:01 41.83832 18.80780 24206 ft 397 kts 313°
2026-05-04 13:01 41.85598 18.77928 24598 ft 398 kts 313°
2026-05-04 13:01 41.87343 18.75106 24925 ft 400 kts 312°
2026-05-04 13:01 41.89127 18.72215 25280 ft 402 kts 312°
2026-05-04 13:02 41.90911 18.69306 25631 ft 405 kts 310°
2026-05-04 13:02 41.92473 18.66147 25987 ft 409 kts 301°
2026-05-04 13:02 41.93612 18.62626 26354 ft 415 kts 291°
2026-05-04 13:02 41.94480 18.58918 26716 ft 417 kts 291°
2026-05-04 13:03 41.95349 18.55191 27082 ft 418 kts 291°
2026-05-04 13:03 41.96219 18.51459 27445 ft 419 kts 291°
2026-05-04 13:03 41.97091 18.47719 27804 ft 421 kts 291°
2026-05-04 13:03 41.97967 18.43959 28152 ft 422 kts 291°
2026-05-04 13:04 41.98849 18.40191 28456 ft 424 kts 290°
2026-05-04 13:04 41.99734 18.36407 28766 ft 425 kts 290°
2026-05-04 13:04 42.00621 18.32612 29099 ft 427 kts 290°
2026-05-04 13:04 42.01513 18.28788 29414 ft 428 kts 290°
2026-05-04 13:05 42.02399 18.24966 29721 ft 430 kts 290°
2026-05-04 13:05 42.03287 18.21111 30065 ft 432 kts 290°
2026-05-04 13:05 42.04175 18.17245 30357 ft 433 kts 290°
2026-05-04 13:05 42.05061 18.13377 30710 ft 432 kts 290°
2026-05-04 13:06 42.05942 18.09526 31116 ft 430 kts 290°
2026-05-04 13:06 42.06822 18.05692 31511 ft 427 kts 290°
2026-05-04 13:06 42.07695 18.01889 31916 ft 425 kts 290°
2026-05-04 13:06 42.08566 17.98088 32309 ft 423 kts 290°
2026-05-04 13:07 42.09430 17.94302 32700 ft 422 kts 290°
2026-05-04 13:07 42.10288 17.90536 33084 ft 420 kts 290°
2026-05-04 13:07 42.11140 17.86792 33463 ft 418 kts 290°
2026-05-04 13:07 42.11988 17.83055 33839 ft 416 kts 290°
2026-05-04 13:08 42.12832 17.79331 34198 ft 415 kts 290°
2026-05-04 13:08 42.13671 17.75621 34499 ft 413 kts 290°
2026-05-04 13:08 42.14506 17.71922 34745 ft 413 kts 290°
2026-05-04 13:08 42.15345 17.68204 34981 ft 414 kts 290°
2026-05-04 13:09 42.16180 17.64499 35234 ft 414 kts 290°
2026-05-04 13:09 42.17016 17.60779 35471 ft 414 kts 289°
2026-05-04 13:09 42.17850 17.57056 35723 ft 414 kts 289°
2026-05-04 13:09 42.18679 17.53343 35969 ft 414 kts 289°
2026-05-04 13:10 42.19510 17.49616 36105 ft 415 kts 289°
2026-05-04 13:10 42.21175 17.42167 36134 ft 414 kts 289°
2026-05-04 13:11 42.22834 17.34735 36130 ft 414 kts 289°
2026-05-04 13:11 42.24483 17.27296 36139 ft 414 kts 289°
2026-05-04 13:12 42.26117 17.19896 36129 ft 414 kts 289°
2026-05-04 13:12 42.27753 17.12441 36143 ft 414 kts 289°
2026-05-04 13:13 42.29380 17.04984 36150 ft 415 kts 289°
2026-05-04 13:13 42.31010 16.97503 36143 ft 415 kts 288°
2026-05-04 13:14 42.32643 16.90011 36144 ft 416 kts 288°
2026-05-04 13:14 42.34272 16.82513 36145 ft 416 kts 288°
2026-05-04 13:15 42.35899 16.75011 36143 ft 416 kts 288°
2026-05-04 13:15 42.37522 16.67504 36136 ft 416 kts 288°
2026-05-04 13:16 42.39135 16.59989 36137 ft 416 kts 288°
2026-05-04 13:16 42.40742 16.52462 36138 ft 416 kts 287°
2026-05-04 13:17 42.42328 16.44993 36136 ft 416 kts 287°
2026-05-04 13:17 42.43927 16.37459 36138 ft 416 kts 287°
2026-05-04 13:18 42.45523 16.29920 36133 ft 416 kts 287°
2026-05-04 13:18 42.47118 16.22376 36139 ft 416 kts 287°
2026-05-04 13:19 42.48703 16.14831 36130 ft 417 kts 287°
2026-05-04 13:19 42.50288 16.07268 36129 ft 417 kts 287°
2026-05-04 13:20 42.51309 15.99523 36117 ft 418 kts 279°
2026-05-04 13:20 42.52052 15.91705 36120 ft 418 kts 278°
2026-05-04 13:21 42.52796 15.83887 36124 ft 418 kts 278°
2026-05-04 13:21 42.53543 15.76060 36120 ft 418 kts 278°
2026-05-04 13:22 42.54284 15.68247 36121 ft 418 kts 278°
2026-05-04 13:22 42.55011 15.60491 36118 ft 418 kts 278°
2026-05-04 13:23 42.55735 15.52671 36120 ft 418 kts 278°
2026-05-04 13:23 42.56453 15.44847 36120 ft 418 kts 278°
2026-05-04 13:24 42.57168 15.37037 36119 ft 418 kts 278°
2026-05-04 13:24 42.57882 15.29205 36127 ft 418 kts 278°
2026-05-04 13:25 42.58943 15.17459 36124 ft 418 kts 278°
2026-05-04 13:25 42.59639 15.09602 36125 ft 419 kts 278°
2026-05-04 13:26 42.60324 15.01758 36118 ft 419 kts 278°
2026-05-04 13:26 42.61011 14.93879 36121 ft 419 kts 278°
2026-05-04 13:27 42.61696 14.86011 36110 ft 420 kts 277°
2026-05-04 13:27 42.62380 14.78132 36112 ft 420 kts 277°
2026-05-04 13:28 42.63060 14.70246 36120 ft 421 kts 277°
2026-05-04 13:28 42.63727 14.62390 36116 ft 421 kts 277°
2026-05-04 13:29 42.64386 14.54491 36121 ft 421 kts 277°
2026-05-04 13:29 42.65040 14.46590 36121 ft 421 kts 277°
2026-05-04 13:30 42.65697 14.38689 36123 ft 421 kts 277°
2026-05-04 13:30 42.66243 14.32119 36128 ft 421 kts 277°
2026-05-04 13:31 42.66882 14.24211 36126 ft 421 kts 277°
2026-05-04 13:31 42.67518 14.16290 36125 ft 421 kts 277°
2026-05-04 13:32 42.68151 14.08393 36128 ft 420 kts 277°
2026-05-04 13:32 42.68786 14.00502 36123 ft 420 kts 277°
2026-05-04 13:33 42.69403 13.92620 36123 ft 419 kts 277°
2026-05-04 13:33 42.70011 13.84747 36124 ft 418 kts 277°
2026-05-04 13:34 42.70612 13.76885 36126 ft 418 kts 277°
2026-05-04 13:34 42.71213 13.69041 36124 ft 417 kts 277°
2026-05-04 13:35 42.72098 13.57309 36126 ft 416 kts 277°
2026-05-04 13:36 42.72685 13.49483 36126 ft 416 kts 276°
2026-05-04 13:36 42.73261 13.41659 36140 ft 414 kts 276°
2026-05-04 13:37 42.73829 13.33872 36149 ft 412 kts 276°
2026-05-04 13:37 42.74395 13.26129 36146 ft 411 kts 276°
2026-05-04 13:38 42.74955 13.18401 36152 ft 410 kts 276°
2026-05-04 13:38 42.75506 13.10679 36152 ft 410 kts 276°
2026-05-04 13:39 42.76052 13.02962 36160 ft 409 kts 276°
2026-05-04 13:39 42.76590 12.95270 36163 ft 408 kts 276°
2026-05-04 13:40 42.77125 12.87591 36165 ft 407 kts 276°
2026-05-04 13:40 42.77656 12.79927 36163 ft 407 kts 276°
2026-05-04 13:41 42.78175 12.72261 36161 ft 406 kts 276°
2026-05-04 13:41 42.78685 12.64624 36163 ft 405 kts 276°
2026-05-04 13:42 42.79444 12.53185 36160 ft 404 kts 276°
2026-05-04 13:42 42.79940 12.45622 36151 ft 403 kts 276°
2026-05-04 13:43 42.80436 12.38022 36154 ft 403 kts 275°
2026-05-04 13:43 42.80925 12.30417 36156 ft 402 kts 275°
2026-05-04 13:44 42.81400 12.22832 36153 ft 402 kts 275°
2026-05-04 13:44 42.81871 12.15261 36151 ft 401 kts 275°
2026-05-04 13:45 42.82341 12.07697 36146 ft 401 kts 275°
2026-05-04 13:45 42.82821 12.00121 36054 ft 400 kts 278°
2026-05-04 13:46 42.83398 11.96440 35794 ft 398 kts 287°
2026-05-04 13:46 42.84435 11.92943 35552 ft 400 kts 295°
2026-05-04 13:46 42.85911 11.89713 35298 ft 404 kts 304°
2026-05-04 13:46 42.87797 11.86849 35053 ft 409 kts 314°
2026-05-04 13:47 42.90055 11.84438 34805 ft 416 kts 323°
2026-05-04 13:47 42.92594 11.82495 34568 ft 421 kts 327°
2026-05-04 13:47 42.95187 11.80605 33970 ft 425 kts 327°
2026-05-04 13:47 42.97813 11.78685 33074 ft 431 kts 327°
2026-05-04 13:48 43.00476 11.76736 32256 ft 434 kts 327°
2026-05-04 13:48 43.03131 11.74794 31767 ft 431 kts 328°
2026-05-04 13:48 43.05760 11.72865 31208 ft 429 kts 328°
2026-05-04 13:48 43.08394 11.70929 30632 ft 428 kts 328°
2026-05-04 13:49 43.10975 11.69031 30057 ft 426 kts 328°
2026-05-04 13:49 43.13582 11.67111 29456 ft 423 kts 328°
2026-05-04 13:49 43.16160 11.65213 28894 ft 420 kts 328°
2026-05-04 13:49 43.18723 11.63322 28347 ft 416 kts 328°
2026-05-04 13:50 43.21261 11.61444 27835 ft 412 kts 328°
2026-05-04 13:50 43.23774 11.59580 27326 ft 409 kts 328°
2026-05-04 13:50 43.26264 11.57733 26836 ft 406 kts 328°
2026-05-04 13:50 43.28766 11.55879 26324 ft 402 kts 328°
2026-05-04 13:51 43.31194 11.54080 26076 ft 400 kts 328°
2026-05-04 13:51 43.33640 11.52272 25381 ft 398 kts 328°
2026-05-04 13:51 43.36064 11.50479 24924 ft 396 kts 328°
2026-05-04 13:51 43.38482 11.48687 24468 ft 394 kts 328°
2026-05-04 13:52 43.43291 11.45098 23567 ft 391 kts 326°
2026-05-04 13:52 43.45423 11.42860 23086 ft 383 kts 311°
2026-05-04 13:52 43.47086 11.40033 22643 ft 377 kts 300°
2026-05-04 13:53 43.48288 11.36869 22191 ft 370 kts 290°
2026-05-04 13:53 43.49050 11.33512 21760 ft 365 kts 281°
2026-05-04 13:53 43.49584 11.30107 21324 ft 362 kts 281°
2026-05-04 13:54 43.50652 11.23374 20425 ft 357 kts 281°
2026-05-04 13:54 43.51176 11.20049 19967 ft 355 kts 280°
2026-05-04 13:54 43.52205 11.13444 19045 ft 351 kts 280°
2026-05-04 13:55 43.52708 11.10167 18583 ft 349 kts 280°
2026-05-04 13:55 43.53705 11.03659 17603 ft 345 kts 280°
2026-05-04 13:55 43.54196 11.00444 17139 ft 341 kts 280°
2026-05-04 13:56 43.54683 10.97262 16690 ft 338 kts 280°
2026-05-04 13:56 43.55165 10.94096 16231 ft 335 kts 279°
2026-05-04 13:56 43.56114 10.87855 15342 ft 331 kts 279°
2026-05-04 13:57 43.56584 10.84756 14879 ft 329 kts 279°
2026-05-04 13:57 43.57052 10.81679 14445 ft 327 kts 279°
2026-05-04 13:58 43.58436 10.72554 13101 ft 321 kts 278°
2026-05-04 13:58 43.59335 10.66558 12242 ft 317 kts 278°
2026-05-04 13:58 43.59788 10.63588 11835 ft 316 kts 281°
2026-05-04 13:59 43.60657 10.60798 11413 ft 319 kts 301°
2026-05-04 13:59 43.62165 10.58544 10990 ft 322 kts 321°
2026-05-04 13:59 43.66328 10.56679 10427 ft 313 kts
2026-05-04 14:00 43.68437 10.57213 10224 ft 304 kts 22°
2026-05-04 14:00 43.71980 10.60362 9476 ft 312 kts 39°
2026-05-04 14:00 43.73697 10.62148 9261 ft 305 kts 39°
2026-05-04 14:01 43.75357 10.63881 8995 ft 300 kts 39°
2026-05-04 14:01 43.77070 10.65521 8729 ft 295 kts 27°
2026-05-04 14:01 43.80921 10.65771 7956 ft 278 kts 335°
2026-05-04 14:02 43.82481 10.64314 7483 ft 266 kts 311°
2026-05-04 14:02 43.83740 10.62436 7016 ft 259 kts 310°
2026-05-04 14:02 43.84936 10.60661 6602 ft 250 kts 310°
2026-05-04 14:02 43.85981 10.58793 6103 ft 240 kts 292°
2026-05-04 14:03 43.86395 10.56629 5624 ft 228 kts 269°
2026-05-04 14:03 43.86156 10.54515 5124 ft 220 kts 246°
2026-05-04 14:03 43.85380 10.52744 4642 ft 210 kts 228°
2026-05-04 14:03 43.84474 10.51208 4140 ft 202 kts 229°
2026-05-04 14:04 43.82315 10.49052 3250 ft 188 kts 202°
2026-05-04 14:04 43.81143 10.48324 2961 ft 182 kts 202°
2026-05-04 14:04 43.79996 10.47597 2688 ft 179 kts 202°
2026-05-04 14:05 43.77775 10.46193 2146 ft 173 kts 202°
2026-05-04 14:05 43.76687 10.45508 1875 ft 168 kts 202°
2026-05-04 14:05 43.75647 10.44852 1635 ft 161 kts 204°
2026-05-04 14:06 43.74675 10.44239 1395 ft 151 kts 204°
2026-05-04 14:06 43.73754 10.43658 1168 ft 142 kts 202°
2026-05-04 14:06 43.72859 10.43094 915 ft 141 kts 202°
2026-05-04 14:06 43.71980 10.42536 694 ft 138 kts 202°
2026-05-04 14:07 43.71110 10.41992 521 ft 138 kts 203°
2026-05-04 14:07 43.70260 10.41362 316 ft 138 kts 212°
2026-05-04 14:07 43.69493 10.40580 127 ft 137 kts 215°
2026-05-04 14:07 43.68760 10.39818 24 ft 121 kts 215°
2026-05-04 14:08 43.68193 10.39239 18 ft 77 kts 216°
2026-05-04 14:08 43.67895 10.38932 17 ft 36 kts 217°
2026-05-04 14:08 43.67708 10.38739 19 ft 32 kts 217°
2026-05-04 14:08 43.67555 10.38581 18 ft 18 kts 217°
2026-05-04 14:09 43.67641 10.38351 13 ft 9 kts 13°
2026-05-04 14:09 43.67691 10.38395 14 ft 9 kts 34°
2026-05-04 14:10 43.67861 10.38562 14 ft 20 kts 36°
2026-05-04 14:10 43.67978 10.38680 14 ft 21 kts 37°
2026-05-04 14:10 43.68102 10.38806 13 ft 23 kts 36°
2026-05-04 14:10 43.68205 10.38919 14 ft 17 kts 39°
2026-05-04 14:11 43.68304 10.39021 15 ft 18 kts 37°
2026-05-04 14:11 43.68503 10.39228 17 ft 18 kts 37°
2026-05-04 14:11 43.68606 10.39333 18 ft 19 kts 37°
2026-05-04 14:12 43.68717 10.39447 18 ft 20 kts 37°
2026-05-04 14:12 43.68833 10.39567 18 ft 21 kts 37°
2026-05-04 14:12 43.69044 10.39786 20 ft 22 kts 37°
2026-05-04 14:13 43.69165 10.39907 22 ft 18 kts 31°
2026-05-04 14:13 43.69290 10.39907 18 ft 20 kts 353°
2026-05-04 14:13 43.69413 10.39892 16 ft 12 kts
2026-05-04 14:13 43.69501 10.39909 16 ft 12 kts
2026-05-04 14:14 43.69585 10.39928 15 ft 13 kts 10°
2026-05-04 14:14 43.69683 10.40032 15 ft 9 kts 90°
2026-05-04 14:14 43.69693 10.40086 15 ft 9 kts 69°
2026-05-04 14:15 43.69705 10.40122 15 ft 2 kts 64°
2026-05-04 14:15 43.69746 10.40149 15 ft 2 kts
2026-05-04 14:16 43.69765 10.40153 15 ft 0 kts